Home > Weather > Thunder Bay > Past weeks

Flag for Canada Past Weather in Thunder Bay, Ontario, Canada — Yesterday and Last 2 Weeks

Now
50 °F

Passing clouds.


Feels Like: 50 °F
Forecast: 55 / 72 °F
Wind: No wind

Location: Thunder Bay

Current Time: Aug 27, 2016 at 12:52:29 AM

Latest Report: Aug 27, 2016 at 12:00 AM


Visibility: 20 mi

Pressure: 30.15 "Hg

Humidity: 100%

Dew Point: 50 °F

Location of Thunder BayLocation

Past Weather in Thunder Bay — Graph

°F

Thunder Bay Temperature Yesterday

Maximum temperature yesterday: 72 °F (at 4:00 PM)
Minimum temperature yesterday: 50 °F (at 7:00 AM)
Average temperature yesterday: 60 °F

High & Low Weather Summary for the Past Weeks

 TemperatureHumidityPressure
High86 °F (Aug 18, 2:00 PM)100% (Aug 12, 12:00 AM)30.14 "Hg (Aug 12, 12:00 AM)
Low48 °F (Aug 22, 1:00 AM)40% (Aug 21, 2:00 PM)29.65 "Hg (Aug 20, 6:00 PM)
Average66 °F80%29.90 "Hg
* Reported Aug 11 11:00 PM — Aug 26 11:00 PM, Thunder Bay, Weather by CustomWeather, © 2016

Note: Actual official high and low records may vary slightly from our data, if they occured in-between our weather recording intervals... More about our weather records

Advertising

Thunder Bay Weather History for the Previous 24 Hours

Scroll right to see more
 ConditionsComfort  
Time TempWeatherWind HumidityBarometerVisibility
11:00 PM
Fri, Aug 26
52 °FPassing clouds.No wind94%30.14 "Hg15 mi
10:00 PM57 °FHigh level clouds.No wind82%30.14 "Hg15 mi
9:00 PM59 °FHigh level clouds.7 mph72%30.13 "Hg15 mi
8:00 PM63 °FOvercast.12 mph64%30.13 "Hg20 mi
7:00 PM66 °FScattered clouds.13 mph56%30.13 "Hg20 mi
6:00 PM68 °FScattered clouds.12 mph56%30.11 "Hg20 mi
5:00 PM68 °FScattered clouds.14 mph56%30.11 "Hg20 mi
4:00 PM72 °FScattered clouds.8 mph53%30.11 "Hg20 mi
3:00 PM68 °FPartly sunny.5 mph53%30.12 "Hg20 mi
2:00 PM66 °FScattered clouds.5 mph56%30.12 "Hg20 mi
1:00 PM66 °FPartly sunny.8 mph56%30.13 "Hg20 mi
12:00 PM66 °FScattered clouds.3 mph52%30.13 "Hg20 mi
11:00 AM63 °FScattered clouds.2 mph64%30.13 "Hg20 mi
10:00 AM61 °FPassing clouds.6 mph68%30.12 "Hg20 mi
9:00 AM57 °FPassing clouds.3 mph82%30.11 "Hg20 mi
8:00 AM52 °FPassing clouds.3 mph94%30.09 "Hg20 mi
7:00 AM50 °FPassing clouds.6 mph94%30.07 "Hg20 mi
6:00 AM54 °FClear.6 mph94%30.06 "Hg15 mi
5:00 AM54 °FPassing clouds.9 mph94%30.04 "Hg15 mi
4:00 AM55 °FPassing clouds.8 mph94%30.03 "Hg15 mi
3:00 AM57 °FPartly cloudy.6 mph88%30.01 "Hg15 mi
2:00 AM59 °FOvercast.8 mph88%29.99 "Hg15 mi
1:00 AM59 °FPartly cloudy.6 mph88%29.97 "Hg15 mi
12:00 AM59 °FPassing clouds.6 mph88%29.94 "Hg15 mi
Weather by CustomWeather, © 2016

See weather overviewHow to use our weather pages